Helicity
388 365 410 417 287 226 183 162 158 138 161 121 161 135 94 81 89 86 81 98 105 104 135 119 111 98 95 78 39 47 19 9
114 442 456 427 291 279 244 208 158 153 176 167 180 155 111 97 85 83 84 109 119 99 134 125 113 99 82 77 11 30 26 15
3 429 524 465 364 313 261 206 179 136 148 135 115 141 114 106 88 83 87 103 119 129 135 147 115 106 97 76 30 18 25 22
-77 234 545 535 414 357 278 213 180 145 119 117 124 136 192 133 109 105 102 109 143 156 153 193 203 159 104 74 42 38 25 38
49 100 511 550 416 326 291 210 173 107 77 92 145 152 163 128 124 109 107 123 141 158 164 204 194 175 128 77 57 43 35 41
203 126 452 540 551 379 294 199 123 58 18 83 161 156 165 155 135 145 124 133 158 163 201 218 193 168 144 100 66 65 41 53
126 59 327 468 485 379 310 218 92 12 6 106 170 173 163 186 171 170 158 171 169 206 228 217 175 170 143 100 80 72 72 80
261 147 337 415 591 442 359 241 100 22 80 115 193 175 209 251 255 227 229 223 220 223 235 213 176 187 149 127 103 82 69 76
220 195 378 507 615 493 324 260 134 74 119 123 147 212 241 323 306 285 246 244 278 267 266 191 183 175 172 146 123 92 89 88
106 186 378 552 605 507 367 262 185 163 154 167 145 238 261 368 308 290 289 347 386 326 279 216 200 188 178 159 128 111 109 107
123 213 483 532 519 441 371 272 306 273 204 207 217 232 282 323 289 434 490 492 439 358 299 265 226 207 226 199 150 117 125 123
134 256 436 498 452 439 369 342 367 346 295 280 283 258 297 400 522 570 632 609 481 365 309 267 252 238 226 196 169 140 146 142
154 277 411 438 468 387 410 376 414 408 407 335 321 341 458 554 660 728 665 589 424 365 286 286 277 266 220 193 191 149 147 145
200 259 375 405 371 414 423 459 457 428 429 361 354 495 555 659 763 766 634 529 420 308 293 316 290 254 203 169 151 145 138 134
167 251 310 446 402 385 396 485 504 388 373 354 452 533 564 669 722 707 578 452 354 308 329 323 279 259 208 176 146 135 128 115
207 199 273 402 464 431 451 470 382 335 345 393 480 542 630 709 720 677 509 368 318 347 350 307 349 307 231 223 213 194 129 125
260 224 231 260 387 440 415 411 334 343 381 439 506 575 644 699 660 544 411 356 371 344 299 331 324 252 236 214 185 175 171 140
246 221 261 262 303 401 479 490 438 439 488 512 577 673 693 632 557 458 404 391 353 304 284 361 301 243 209 192 186 160 147 134
241 286 331 327 359 433 513 534 525 523 540 594 669 700 659 576 513 420 391 359 318 284 305 331 280 211 190 185 175 168 143 104
Wind_Speed
26 33 30 26 28 30 29 26 23 25 23 22 18 20 20 20 19 20 22 25 28 29 33 36 39 44 48 49 48 48 54 55
44 32 30 28 28 29 29 28 28 28 20 22 20 19 20 18 19 19 20 22 27 28 31 34 39 42 44 48 47 50 56 59
58 37 35 31 31 27 26 27 26 26 21 21 23 22 19 18 19 19 19 21 25 29 28 35 34 39 43 48 49 50 53 59
35 47 38 35 34 28 25 28 27 27 22 22 22 24 19 17 18 18 19 21 25 27 30 33 35 39 42 46 48 51 52 54
30 36 32 34 27 25 25 26 26 28 26 21 19 17 18 18 18 18 19 20 23 26 29 31 34 37 41 44 48 50 50 53
19 33 38 31 30 27 23 23 25 27 29 24 25 19 16 20 18 18 18 19 22 26 29 30 34 36 39 42 46 50 50 50
24 30 32 25 21 24 24 25 26 26 28 24 24 22 19 18 16 16 16 18 21 25 27 30 33 36 37 40 44 48 49 49
19 24 25 25 27 26 21 26 26 31 25 24 24 23 19 16 18 17 16 14 17 20 24 29 33 35 36 39 42 46 47 46
17 20 27 24 23 22 20 29 32 31 26 23 23 17 15 16 15 13 11 9 12 16 21 27 30 33 37 38 42 45 45 45
6 21 21 23 24 25 22 32 35 30 28 24 21 15 10 11 14 8 6 8 10 13 18 24 29 33 36 36 41 44 43 45
25 17 23 28 24 22 24 30 28 28 29 24 19 15 12 14 10 5 6 6 9 11 16 22 27 32 38 35 40 43 42 44
36 11 19 26 24 28 23 25 26 26 27 22 12 12 11 6 3 5 5 4 6 11 15 20 24 31 35 37 38 40 42 43
33 11 11 20 19 22 19 20 21 23 24 22 15 12 6 3 2 2 3 3 6 11 14 19 23 30 35 36 37 39 40 42
25 14 6 8 14 16 16 15 15 16 21 19 15 11 8 5 2 1 2 3 6 10 14 18 23 29 33 33 34 36 38 37
12 12 7 4 9 13 15 13 13 14 16 15 12 10 7 5 3 3 4 2 5 9 13 18 24 29 33 34 34 36 39 35
10 13 13 11 6 9 10 13 14 14 15 15 13 10 5 3 4 5 2 2 5 8 12 18 26 30 33 35 37 40 38 39
12 14 14 11 9 7 10 12 14 13 14 15 13 8 5 3 2 2 2 2 4 6 12 18 24 30 32 35 36 35 42 43
17 16 13 10 10 9 9 9 10 12 14 14 11 7 4 3 1 2 3 2 0 5 10 15 23 26 30 33 36 35 38 42
18 14 13 9 8 9 6 5 9 12 13 12 10 8 5 2 2 3 3 3 1 4 9 14 20 25 28 32 35 37 40 40
Wind_Direction
139 135 129 124 122 123 119 114 105 104 98 98 76 84 74 68 59 49 46 35 34 33 25 28 21 17 10 5 340 344 358 359
214 134 132 129 125 124 124 117 113 113 96 107 97 88 85 67 64 62 50 35 31 30 28 23 21 19 14 3 337 340 350 350
201 142 140 140 138 127 126 123 118 115 100 104 109 102 84 79 71 64 56 39 28 24 34 25 27 22 12 1 342 347 354 353
155 161 152 146 145 136 135 132 124 124 114 108 106 105 72 69 77 67 58 48 28 31 22 19 22 18 8 357 347 352 359 359
145 165 165 159 154 142 137 138 130 131 132 121 119 105 99 90 80 73 61 53 40 31 20 21 17 14 4 355 352 356 4 4
145 179 169 162 149 150 144 142 141 137 143 133 127 113 89 98 83 75 61 51 42 29 22 21 12 11 7 358 355 357 4 6
151 158 160 154 153 149 145 147 148 150 148 140 133 125 114 101 87 83 67 55 41 33 36 24 15 11 8 4 1 2 6 8
150 165 162 159 156 154 153 158 157 159 151 149 144 138 129 124 112 100 88 58 29 31 33 20 14 11 9 4 3 4 6 9
186 186 178 165 157 159 156 162 161 163 159 155 152 142 132 133 127 110 93 76 32 34 30 22 20 15 8 4 2 3 7 9
156 186 182 174 168 165 156 162 163 164 165 158 159 147 134 139 139 121 97 78 29 33 30 23 18 14 7 3 360 1 6 7
7 175 175 177 172 164 155 162 166 167 169 169 164 163 144 145 140 28 61 67 30 30 13 15 11 8 3 7 3 3 6 7
350 76 162 167 168 166 163 164 165 172 176 176 175 177 166 138 39 68 79 45 20 3 5 10 8 4 3 2 4 5 5 6
359 40 140 161 167 173 179 178 181 183 181 183 192 184 199 269 334 60 81 11 3 358 6 5 5 360 0 2 4 4 4 5
12 31 91 157 171 183 187 192 191 187 185 190 199 217 229 258 250 270 326 352 357 4 360 2 359 358 359 4 6 5 5 10
12 21 352 289 200 190 192 201 202 198 195 199 208 213 215 257 233 277 294 351 2 359 359 359 356 355 357 360 4 3 2 9
308 324 318 318 239 199 192 190 195 200 197 196 188 179 187 212 263 280 264 335 352 3 360 355 351 352 353 355 356 357 360 2
286 312 313 276 241 237 202 197 194 191 186 176 168 171 177 190 222 232 242 319 359 8 351 351 348 349 354 353 353 356 356 358
277 297 305 288 274 259 237 215 188 183 179 175 176 180 184 200 223 224 246 203 19 345 352 356 350 355 356 355 354 356 356 357
266 286 301 282 286 285 263 214 191 180 185 190 188 185 196 213 239 242 217 191 248 335 354 357 356 357 359 357 358 358 355 356